This is the latest recevied weather packets stored in our database for station/object DC0VZ-6. If no packets are shown the sender has not sent any weather packets the latest 10 day(s).
| Time | Temp. | Humidity | Pressure | Rain* | Wind** | Luminosity | Snow |
|---|---|---|---|---|---|---|---|
| 1777806374 | 23.89° C | 8% | 983.3 hPa | 0 mm | - | - | - |
| 1777805774 | 22.78° C | 9% | 983.5 hPa | 0 mm | - | - | - |
| 1777805173 | 22.22° C | 10% | 983.5 hPa | 0 mm | - | - | - |
| 1777804574 | 22.22° C | 10% | 983.3 hPa | 0 mm | - | - | - |
| 1777803973 | 23.33° C | 10% | 983.3 hPa | 0 mm | - | - | - |
| 1777803373 | 21.67° C | 10% | 983.5 hPa | 0 mm | - | - | - |
| 1777802773 | 21.11° C | 10% | 983.5 hPa | 0 mm | - | - | - |
| 1777802173 | 21.11° C | 10% | 983.6 hPa | 0 mm | - | - | - |
| 1777801573 | 21.67° C | 10% | 983.6 hPa | 0 mm | - | - | - |
| 1777800973 | 21.67° C | 10% | 983.7 hPa | 0 mm | - | - | - |
| 1777800373 | 21.67° C | 10% | 983.7 hPa | 0 mm | - | - | - |
| 1777799773 | 22.22° C | 10% | 983.8 hPa | 0 mm | - | - | - |
| 1777799173 | 22.22° C | 10% | 983.8 hPa | 0 mm | - | - | - |
| 1777798573 | 21.67° C | 10% | 984.1 hPa | 0 mm | - | - | - |
| 1777797973 | 21.67° C | 13% | 984.1 hPa | 0 mm | - | - | - |
| 1777797372 | 21.67° C | 14% | 984 hPa | 0 mm | - | - | - |
| 1777796773 | 20.56° C | 15% | 984 hPa | 0 mm | - | - | - |
| 1777796173 | 22.22° C | 16% | 983.9 hPa | 0 mm | - | - | - |
| 1777795573 | 21.11° C | 20% | 983.9 hPa | 0 mm | - | - | - |
| 1777794972 | 20° C | 20% | 983.8 hPa | 0 mm | - | - | - |
| 1777794372 | 19.44° C | 20% | 983.8 hPa | 0 mm | - | - | - |
| 1777793772 | 19.44° C | 21% | 983.8 hPa | 0 mm | - | - | - |
| 1777793172 | 19.44° C | 21% | 983.8 hPa | 0 mm | - | - | - |
| 1777792572 | 18.89° C | 21% | 983.6 hPa | 0 mm | - | - | - |
| 1777791972 | 18.33° C | 21% | 983.6 hPa | 0 mm | - | - | - |
* Rain latest hour (hover to see other rain measurements)
** Current wind speed in m/s (hover to see current wind gust speed)